Sturgis, MI

3:52 PM EST on December 05, 2019 (GMT -0500)
Kirsch Municipal

Weather History for KIRS - October, 2019

Change the Weather History Date:

Sunday, October 13, 2019

  Actual Average (WUND) Record (WUND)
Temperature  
Mean Temperature 51 °F -  
Max Temperature 59 °F - - (-1)
Min Temperature 43 °F - - (-1)
Degree Days  
Heating Degree Days 14    
Growing Degree Days 1 (Base 50)    
Moisture  
Dew Point 32 °F    
Average Humidity 51    
Maximum Humidity 67    
Minimum Humidity 27    
Precipitation  
Precipitation 0.00 in - - ()
Sea Level Pressure  
Sea Level Pressure 29.85 in    
Wind  
Wind Speed 11 mph ()    
Max Wind Speed 20 mph    
Max Gust Speed 28 mph    
Visibility 10.0 miles    
Events      
Averages and records for this station are not official NWS values.
T = Trace of Precipitation, MM = Missing Value Source: Averaged Metar Reports

Daily Weather History Graph

Daily Weather History Graph

Search for Another Location

Airport or City:

Astronomy

Oct. 13, 2019 Rise Set
Actual Time 7:51 AM EDT 7:03 PM EDT
Civil Twilight 7:23 AM EDT 7:31 PM EDT
Nautical Twilight 6:51 AM EDT 8:03 PM EDT
Astronomical Twilight 6:19 AM EDT 8:36 PM EDT
Moon 7:26 PM EDT (10/13) 7:23 AM EDT (10/13)
Length of Visible Light 12h 08m
Length of Day
11h 12m
Full, 100% of the Moon is Illuminated
Oct 13
Full
Oct 13
Full
Oct 21
Last Quarter
Oct 27
New
Nov 4
First Quarter

Hourly Weather History & Observations

Time (EDT) Temp. Windchill Dew Point Humidity Pressure Visibility Wind Dir Wind Speed Gust Speed Precip Events Conditions
12:15 AM 45.5 °F 39.9 °F 30.2 °F 55% 29.91 in 10.0 mi SSW 11.5 mph - N/A   Clear
12:16 AM 45.5 °F 39.6 °F 30.2 °F 55% 29.91 in 10.0 mi SSW 12.7 mph - N/A   Clear
12:35 AM 45.7 °F 39.8 °F 30.2 °F 55% 29.91 in 10.0 mi SSW 12.7 mph 18.4 mph N/A   Clear
12:36 AM 45.7 °F 40.2 °F 30.2 °F 55% 29.91 in 10.0 mi South 11.5 mph 18.4 mph N/A   Clear
12:55 AM 45.5 °F 39.9 °F 30.4 °F 56% 29.90 in 10.0 mi SSW 11.5 mph 19.6 mph N/A   Clear
1:36 AM 45.3 °F 40.1 °F 31.1 °F 58% 29.89 in 10.0 mi SSW 10.4 mph 19.6 mph N/A   Clear
1:55 AM 44.8 °F 38.7 °F 31.1 °F 59% 29.89 in 10.0 mi SSW 12.7 mph - N/A   Clear
1:56 AM 45.0 °F 39.3 °F 31.1 °F 58% 29.89 in 10.0 mi SSW 11.5 mph - N/A   Clear
2:15 AM 45.0 °F 39.7 °F 31.1 °F 58% 29.89 in 10.0 mi SSW 10.4 mph - N/A   Clear
2:16 AM 45.0 °F 39.7 °F 31.1 °F 58% 29.89 in 10.0 mi SSW 10.4 mph - N/A   Clear
2:39 AM 45.1 °F 39.9 °F 31.3 °F 58% 29.88 in 10.0 mi SSW 10.4 mph - N/A   Clear
2:57 AM 45.1 °F 39.9 °F 31.5 °F 59% 29.88 in 10.0 mi SSW 10.4 mph - N/A   Clear
3:15 AM 44.8 °F 39.4 °F 31.8 °F 60% 29.88 in 10.0 mi SSW 10.4 mph - N/A   Clear
3:16 AM 44.8 °F 39.9 °F 31.8 °F 60% 29.88 in 10.0 mi SSW 9.2 mph - N/A   Clear
3:35 AM 44.8 °F 39.0 °F 31.8 °F 60% 29.87 in 10.0 mi South 11.5 mph - N/A   Clear
3:36 AM 44.8 °F 39.0 °F 31.8 °F 60% 29.87 in 10.0 mi South 11.5 mph - N/A   Clear
3:56 AM 44.6 °F 38.8 °F 32.0 °F 61% 29.87 in 10.0 mi SSW 11.5 mph - N/A   Clear
4:19 AM 45.0 °F 39.3 °F 31.6 °F 60% 29.87 in 10.0 mi SSW 11.5 mph 18.4 mph N/A   Clear
4:37 AM 44.8 °F 39.4 °F 31.6 °F 60% 29.86 in 10.0 mi SSW 10.4 mph 16.1 mph N/A   Clear
4:55 AM 45.5 °F 39.6 °F 31.3 °F 58% 29.86 in 10.0 mi SSW 12.7 mph - N/A   Clear
4:56 AM 45.3 °F 39.3 °F 31.5 °F 58% 29.86 in 10.0 mi SSW 12.7 mph - N/A   Clear
5:15 AM 44.8 °F 38.7 °F 31.8 °F 60% 29.87 in 10.0 mi SSW 12.7 mph 17.3 mph N/A   Clear
5:16 AM 44.8 °F 38.7 °F 31.8 °F 60% 29.87 in 10.0 mi SSW 12.7 mph 17.3 mph N/A   Clear
5:35 AM 44.8 °F 39.4 °F 31.8 °F 60% 29.86 in 10.0 mi SSW 10.4 mph - N/A   Clear
5:58 AM 44.6 °F 38.8 °F 32.0 °F 61% 29.85 in 10.0 mi SSW 11.5 mph - N/A   Clear
6:16 AM 44.8 °F 39.0 °F 32.0 °F 61% 29.85 in 10.0 mi SSW 11.5 mph - N/A   Clear
6:35 AM 44.6 °F 38.8 °F 32.0 °F 61% 29.85 in 10.0 mi SSW 11.5 mph - N/A   Clear
6:36 AM 44.6 °F 38.4 °F 32.0 °F 61% 29.85 in 10.0 mi SSW 12.7 mph - N/A   Clear
6:55 AM 44.8 °F 38.7 °F 32.0 °F 61% 29.85 in 10.0 mi SSW 12.7 mph 17.3 mph N/A   Clear
7:19 AM 44.6 °F 38.4 °F 32.0 °F 61% 29.85 in 10.0 mi SSW 12.7 mph 18.4 mph N/A   Clear
7:37 AM 44.1 °F 38.1 °F 32.0 °F 63% 29.85 in 10.0 mi SSW 11.5 mph - N/A   Clear
7:55 AM 43.9 °F 37.9 °F 32.2 °F 63% 29.85 in 10.0 mi SSW 11.5 mph - N/A   Clear
7:56 AM 43.9 °F 37.9 °F 32.2 °F 63% 29.85 in 10.0 mi SSW 11.5 mph - N/A   Clear
8:15 AM 43.9 °F 37.9 °F 32.4 °F 64% 29.85 in 10.0 mi SSW 11.5 mph 17.3 mph N/A   Clear
8:35 AM 44.6 °F 38.8 °F 32.5 °F 63% 29.85 in 10.0 mi SSW 11.5 mph 16.1 mph N/A   Clear
8:58 AM 46.0 °F 40.2 °F 32.7 °F 60% 29.85 in 10.0 mi SSW 12.7 mph - N/A   Clear
9:16 AM 47.5 °F - 32.9 °F 57% 29.85 in 10.0 mi SW 13.8 mph 19.6 mph N/A   Clear
9:35 AM 48.7 °F - 32.9 °F 54% 29.86 in 10.0 mi WSW 16.1 mph 24.2 mph N/A   Clear
9:36 AM 48.7 °F - 32.9 °F 54% 29.86 in 10.0 mi WSW 16.1 mph 24.2 mph N/A   Clear
9:55 AM 49.3 °F - 32.9 °F 53% 29.86 in 10.0 mi SW 15.0 mph 25.3 mph N/A   Clear
9:56 AM 49.3 °F - 33.1 °F 54% 29.86 in 10.0 mi SW 15.0 mph 24.2 mph N/A   Clear
10:19 AM 50.5 °F - 33.3 °F 52% 29.85 in 10.0 mi WSW 16.1 mph 23.0 mph N/A   Clear
10:36 AM 51.1 °F - 33.4 °F 51% 29.85 in 10.0 mi SW 17.3 mph 25.3 mph N/A   Clear
10:55 AM 51.4 °F - 33.6 °F 51% 29.85 in 10.0 mi WSW 16.1 mph - N/A   Clear
10:56 AM 51.4 °F - 33.6 °F 51% 29.85 in 10.0 mi WSW 15.0 mph - N/A   Clear
11:15 AM 52.3 °F - 33.6 °F 49% 29.85 in 10.0 mi SW 18.4 mph 23.0 mph N/A   Clear
11:16 AM 52.3 °F - 33.8 °F 49% 29.85 in 10.0 mi SW 19.6 mph 25.3 mph N/A   Clear
11:35 AM 53.6 °F - 34.2 °F 48% 29.84 in 10.0 mi WSW 11.5 mph 21.9 mph N/A   Clear
11:59 AM 54.9 °F - 34.2 °F 46% 29.84 in 10.0 mi SW 16.1 mph 21.9 mph N/A   Clear
12:17 PM 55.6 °F - 33.6 °F 44% 29.85 in 10.0 mi WSW 15.0 mph 24.2 mph N/A   Clear
12:35 PM 56.7 °F - 32.7 °F 40% 29.84 in 10.0 mi WSW 16.1 mph 21.9 mph N/A   Clear
12:55 PM 56.8 °F - 30.9 °F 37% 29.83 in 10.0 mi WSW 19.6 mph 23.0 mph N/A   Clear
12:56 PM 56.8 °F - 30.7 °F 37% 29.83 in 10.0 mi West 17.3 mph 23.0 mph N/A   Clear
1:15 PM 57.6 °F - 31.6 °F 37% 29.82 in 10.0 mi WSW 16.1 mph 26.5 mph N/A   Clear
1:20 PM 57.9 °F - 30.7 °F 36% 29.82 in 10.0 mi WSW 19.6 mph 27.6 mph N/A   Clear
1:38 PM 58.6 °F - 31.5 °F 36% 29.82 in 10.0 mi WSW 18.4 mph 24.2 mph N/A   Clear
1:56 PM 59.0 °F - 30.9 °F 35% 29.81 in 10.0 mi WSW 16.1 mph 26.5 mph N/A   Clear
2:15 PM 59.5 °F - 30.9 °F 34% 29.81 in 10.0 mi WSW 18.4 mph 23.0 mph N/A   Clear
2:16 PM 59.4 °F - 30.6 °F 34% 29.81 in 10.0 mi WSW 17.3 mph 23.0 mph N/A   Clear
2:35 PM 59.0 °F - 29.1 °F 32% 29.81 in 10.0 mi West 19.6 mph 25.3 mph N/A   Clear
2:59 PM 59.0 °F - 27.5 °F 30% 29.80 in 10.0 mi West 17.3 mph 25.3 mph N/A   Clear
3:17 PM 59.0 °F - 26.4 °F 29% 29.80 in 10.0 mi WSW 16.1 mph 26.5 mph N/A   Clear
3:35 PM 59.5 °F - 26.4 °F 28% 29.79 in 10.0 mi West 16.1 mph - N/A   Clear
3:55 PM 59.4 °F - 25.9 °F 28% 29.79 in 10.0 mi West 12.7 mph 19.6 mph N/A   Clear
3:56 PM 59.4 °F - 26.1 °F 28% 29.79 in 10.0 mi West 12.7 mph 19.6 mph N/A   Clear
4:15 PM 59.5 °F - 25.0 °F 27% 29.79 in 10.0 mi WNW 10.4 mph 21.9 mph N/A   Clear
4:20 PM 59.7 °F - 25.7 °F 27% 29.79 in 10.0 mi West 10.4 mph 19.6 mph N/A   Clear
4:38 PM 59.9 °F - 25.9 °F 27% 29.79 in 10.0 mi West 13.8 mph 20.7 mph N/A   Clear
4:56 PM 59.5 °F - 25.0 °F 27% 29.79 in 10.0 mi West 10.4 mph 17.3 mph N/A   Clear
5:15 PM 59.5 °F - 25.5 °F 27% 29.80 in 10.0 mi West 12.7 mph - N/A   Clear
5:35 PM 57.9 °F - 24.8 °F 28% 29.80 in 10.0 mi West 11.5 mph 18.4 mph N/A   Scattered Clouds
5:36 PM 57.7 °F - 25.0 °F 28% 29.80 in 10.0 mi West 12.7 mph 18.4 mph N/A   Scattered Clouds
5:59 PM 57.0 °F - 25.5 °F 30% 29.81 in 10.0 mi West 9.2 mph 17.3 mph N/A   Overcast
6:17 PM 56.7 °F - 25.0 °F 30% 29.81 in 10.0 mi West 8.1 mph 16.1 mph N/A   Overcast
6:35 PM 54.1 °F - 31.6 °F 42% 29.82 in 10.0 mi NNW 6.9 mph - N/A   Overcast
6:36 PM 54.0 °F - 31.8 °F 43% 29.82 in 10.0 mi NNW 5.8 mph - N/A   Overcast
6:55 PM 52.7 °F - 33.1 °F 47% 29.83 in 10.0 mi NNW 5.8 mph - N/A   Overcast
6:56 PM 52.7 °F - 33.1 °F 47% 29.83 in 10.0 mi NNW 6.9 mph - N/A   Overcast
7:15 PM 52.0 °F - 33.3 °F 49% 29.84 in 10.0 mi NNW 6.9 mph - N/A   Overcast
7:20 PM 51.8 °F - 33.3 °F 49% 29.84 in 10.0 mi NW 4.6 mph - N/A   Overcast
7:38 PM 51.1 °F - 33.8 °F 52% 29.85 in 10.0 mi NW 4.6 mph - N/A   Scattered Clouds
7:56 PM 50.9 °F - 33.8 °F 52% 29.86 in 10.0 mi NNW 4.6 mph - N/A   Scattered Clouds
8:15 PM 50.2 °F - 33.4 °F 53% 29.86 in 10.0 mi NNW 4.6 mph - N/A   Mostly Cloudy
8:16 PM 50.2 °F - 33.4 °F 53% 29.86 in 10.0 mi NNW 3.5 mph - N/A   Mostly Cloudy
8:35 PM 49.3 °F - 34.5 °F 57% 29.87 in 10.0 mi NNW 6.9 mph - N/A   Mostly Cloudy
8:59 PM 48.4 °F - 35.6 °F 61% 29.88 in 10.0 mi NNW 8.1 mph - N/A   Overcast
9:17 PM 48.2 °F - 36.1 °F 63% 29.89 in 10.0 mi NNW 4.6 mph - N/A   Overcast
9:35 PM 48.2 °F - 36.3 °F 63% 29.89 in 10.0 mi Calm Calm - N/A   Overcast
9:36 PM 48.2 °F - 36.3 °F 63% 29.89 in 10.0 mi NW 4.6 mph - N/A   Overcast
9:55 PM 48.2 °F - 36.5 °F 64% 29.90 in 10.0 mi NW 4.6 mph - N/A   Overcast
9:56 PM 48.2 °F - 36.5 °F 64% 29.90 in 10.0 mi NW 4.6 mph - N/A   Overcast
10:38 PM 47.8 °F - 36.9 °F 66% 29.91 in 10.0 mi Calm Calm - N/A   Overcast
10:56 PM 47.8 °F - 37.2 °F 67% 29.91 in 10.0 mi West 3.5 mph - N/A   Overcast
11:15 PM 47.8 °F - 36.9 °F 66% 29.91 in 10.0 mi West 5.8 mph - N/A   Overcast
11:16 PM 47.8 °F - 36.9 °F 66% 29.91 in 10.0 mi West 5.8 mph - N/A   Overcast
11:35 PM 47.8 °F - 37.0 °F 66% 29.91 in 10.0 mi West 5.8 mph - N/A   Overcast
11:36 PM 47.8 °F - 37.0 °F 66% 29.91 in 10.0 mi West 5.8 mph - N/A   Overcast
11:59 PM 47.8 °F - 36.3 °F 64% 29.91 in 10.0 mi West 5.8 mph - N/A   Overcast